Home   Weather   Tallinn   Past weeks
Flag for Estonia

Past Weather in Tallinn, Estonia — Yesterday and Last 2 Weeks

Now
68 °F

Partly sunny.


Feels Like: 68 °F
Forecast: 76 / 56 °F
Wind: 6 mph from Southeast

Location: Tallinn

Current Time: Jun 20, 2019 at 10:56:40 pm

Latest Report: Jun 20, 2019 at 10:20 pm


Visibility: N/A

Pressure: 29.83 "Hg

Humidity: 78%

Dew Point: 61 °F

Location of TallinnLocation

Past Weather in Tallinn — Graph

°F

Tallinn Temperature Yesterday

Maximum temperature yesterday: 77 °F (at 1:20 pm)
Minimum temperature yesterday: 54 °F (at 4:50 am)
Average temperature yesterday: 67 °F

High & Low Weather Summary for the Past Weeks

 TemperatureHumidityPressure
High86 °F (Jun 6, 12:50 pm)100% (Jun 9, 5:20 am)30.24 "Hg (Jun 9, 5:20 am)
Low50 °F (Jun 16, 4:20 am)31% (Jun 6, 3:20 pm)29.80 "Hg (Jun 20, 5:20 pm)
Average66 °F67%30.05 "Hg
* Reported Jun 5 9:20 pm — Jun 20 9:50 pm, Tallinn. Weather by CustomWeather, © 2019

Note: Actual official high and low records may vary slightly from our data, if they occured in-between our weather recording intervals... More about our weather records

Advertising

Tallinn Weather History for the Previous 24 Hours

Scroll right to see more
 ConditionsComfort  
Time TempWeatherWind HumidityBarometerVisibility
9:50 pm
Thu, Jun 20
77 °FRain showers. Scattered clouds.14 mph57%29.83 "Hg3 mi
9:20 pm79 °FScattered showers. Passing clouds.5 mph51%29.80 "HgN/A
8:50 pm81 °FPassing clouds.6 mph48%29.80 "HgN/A
8:20 pm79 °FPassing clouds.5 mph51%29.80 "HgN/A
7:50 pm81 °FPassing clouds.7 mph45%29.80 "HgN/A
7:20 pm81 °FPassing clouds.8 mph42%29.80 "HgN/A
6:50 pm82 °FPassing clouds.9 mph40%29.80 "HgN/A
6:20 pm82 °FPassing clouds.8 mph37%29.80 "HgN/A
5:50 pm82 °FPassing clouds.12 mph35%29.80 "HgN/A
5:20 pm84 °FPassing clouds.10 mph35%29.80 "HgN/A
4:50 pm82 °FPassing clouds.12 mph37%29.83 "HgN/A
4:20 pm82 °FPassing clouds.7 mph40%29.83 "HgN/A
3:50 pm84 °FPassing clouds.7 mph35%29.83 "HgN/A
3:20 pm84 °FPassing clouds.8 mph33%29.83 "HgN/A
2:50 pm82 °FPassing clouds.8 mph35%29.83 "HgN/A
2:20 pm86 °FPassing clouds.9 mph31%29.86 "HgN/A
1:50 pm84 °FPassing clouds.9 mph33%29.86 "HgN/A
1:20 pm82 °FPassing clouds.9 mph40%29.86 "HgN/A
12:50 pm81 °FPassing clouds.7 mph45%29.86 "HgN/A
12:20 pm79 °FPassing clouds.8 mph48%29.89 "HgN/A
11:50 am77 °FPassing clouds.8 mph51%29.89 "HgN/A
11:20 am77 °FPassing clouds.8 mph47%29.89 "HgN/A
10:50 am77 °FSunny.8 mph42%29.89 "Hg10 mi
10:20 am73 °FPassing clouds.7 mph47%29.89 "HgN/A
9:50 am73 °FSunny.8 mph47%29.89 "Hg10 mi
9:20 am72 °FSunny.7 mph50%29.92 "Hg10 mi
8:50 am70 °FSunny.6 mph53%29.92 "Hg10 mi
8:20 am66 °FPassing clouds.5 mph64%29.92 "HgN/A
7:50 am63 °FSunny.3 mph73%29.92 "Hg10 mi
7:20 am61 °FSunny.6 mph77%29.92 "Hg10 mi
6:50 am59 °FSunny.3 mph77%29.92 "Hg10 mi
6:20 am57 °FSunny.2 mph82%29.92 "Hg10 mi
5:50 am55 °FSunny.No wind88%29.92 "Hg10 mi
5:20 am54 °FSunny.2 mph88%29.92 "Hg10 mi
4:50 am54 °FSunny.2 mph88%29.95 "Hg10 mi
4:20 am54 °FSunny.No wind88%29.92 "Hg10 mi
3:50 am54 °FClear.No wind88%29.92 "Hg10 mi
3:20 am54 °FClear.3 mph88%29.95 "Hg10 mi
2:50 am55 °FClear.1 mph88%29.95 "Hg10 mi
2:20 am55 °FClear.2 mph88%29.95 "Hg10 mi
1:50 am57 °FClear.1 mph82%29.95 "Hg10 mi
1:20 am59 °FClear.No wind82%29.95 "Hg10 mi
12:50 am59 °FClear.No wind82%29.95 "Hg10 mi
12:20 am61 °FClear.No wind77%29.95 "Hg10 mi
11:50 pm
Wed, Jun 19
61 °FClear.No wind77%29.95 "Hg10 mi
11:20 pm64 °FClear.2 mph68%29.95 "Hg10 mi
10:50 pm64 °FClear.2 mph68%29.95 "Hg10 mi
10:20 pm66 °FSunny.1 mph64%29.92 "Hg10 mi
Weather by CustomWeather, © 2019

See weather overview